DAL1715 KLAX-KSFO

Flight info

Callsign DAL1715
Flight time 0h 54m
Altitude 34000
Route SUMMR2 STOKD SERFR SERFR4
Aircraft A21N/M-SDE2E3FGHIRWXY/LB1

Departure

Time 2026-04-26 16:24
Airport Los Angeles International Airport (KLAX)

Arrival

Time 2026-04-26 17:18
Airport San Francisco International Airport (KSFO)
Time Latitude Longitude Altitude Speed Heading
2026-04-26 16:03 33.94660 -118.40327 100 ft 0 kts 263°
2026-04-26 16:13 33.94663 -118.40300 98 ft 4 kts 262°
2026-04-26 16:13 33.94665 -118.40274 98 ft 4 kts 275°
2026-04-26 16:13 33.94657 -118.40250 99 ft 4 kts 330°
2026-04-26 16:14 33.94653 -118.40246 99 ft 4 kts 353°
2026-04-26 16:14 33.94678 -118.40250 100 ft 4 kts 353°
2026-04-26 16:14 33.94716 -118.40255 102 ft 0 kts 353°
2026-04-26 16:17 33.94734 -118.40258 100 ft 5 kts 353°
2026-04-26 16:18 33.94781 -118.40265 101 ft 8 kts 353°
2026-04-26 16:18 33.94891 -118.40257 103 ft 15 kts 63°
2026-04-26 16:19 33.94925 -118.40006 105 ft 14 kts 82°
2026-04-26 16:19 33.94938 -118.39946 106 ft 8 kts 75°
2026-04-26 16:19 33.94947 -118.39933 106 ft 0 kts 28°
2026-04-26 16:22 33.94956 -118.39927 107 ft 4 kts 28°
2026-04-26 16:22 33.94999 -118.39912 112 ft 9 kts
2026-04-26 16:22 33.95039 -118.39970 113 ft 12 kts 272°
2026-04-26 16:23 33.95029 -118.40085 115 ft 21 kts 263°
2026-04-26 16:23 33.94987 -118.40507 114 ft 87 kts 259°
2026-04-26 16:23 33.94883 -118.41502 113 ft 149 kts 263°
2026-04-26 16:23 33.94739 -118.42889 383 ft 175 kts 263°
2026-04-26 16:24 33.94560 -118.44376 961 ft 188 kts 262°
2026-04-26 16:24 33.94350 -118.45970 1583 ft 202 kts 263°
2026-04-26 16:24 33.94274 -118.47767 2138 ft 218 kts 269°
2026-04-26 16:24 33.94242 -118.49573 3123 ft 219 kts 268°
2026-04-26 16:25 33.94171 -118.51376 4100 ft 220 kts 266°
2026-04-26 16:25 33.94039 -118.53193 5054 ft 222 kts 265°
2026-04-26 16:25 33.93894 -118.55063 5982 ft 224 kts 265°
2026-04-26 16:25 33.93753 -118.56869 6856 ft 226 kts 266°
2026-04-26 16:26 33.93602 -118.58798 7743 ft 228 kts 266°
2026-04-26 16:26 33.93501 -118.60083 8332 ft 229 kts 266°
2026-04-26 16:26 33.93301 -118.62639 9510 ft 234 kts 266°
2026-04-26 16:26 33.93147 -118.64599 10317 ft 235 kts 265°
2026-04-26 16:27 33.92995 -118.66558 11088 ft 236 kts 265°
2026-04-26 16:27 33.92841 -118.68545 11640 ft 249 kts 265°
2026-04-26 16:27 33.92671 -118.70741 11963 ft 273 kts 265°
2026-04-26 16:27 33.92485 -118.73137 12036 ft 303 kts 265°
2026-04-26 16:28 33.92284 -118.75735 12033 ft 314 kts 265°
2026-04-26 16:28 33.92081 -118.78325 12012 ft 314 kts 265°
2026-04-26 16:28 33.91873 -118.80977 11990 ft 314 kts 265°
2026-04-26 16:28 33.91714 -118.83603 11981 ft 314 kts 269°
2026-04-26 16:29 33.91760 -118.86195 12379 ft 314 kts 271°
2026-04-26 16:29 33.91842 -118.88796 13063 ft 317 kts 271°
2026-04-26 16:29 33.91925 -118.91466 13868 ft 320 kts 271°
2026-04-26 16:29 33.92005 -118.94156 14617 ft 323 kts 271°
2026-04-26 16:30 33.92085 -118.96873 15353 ft 327 kts 271°
2026-04-26 16:30 33.92179 -118.99607 16076 ft 331 kts 273°
2026-04-26 16:30 33.92554 -119.01998 16689 ft 337 kts 285°
2026-04-26 16:30 33.93571 -119.04479 17396 ft 344 kts 297°
2026-04-26 16:31 33.94887 -119.06987 18136 ft 349 kts 298°
2026-04-26 16:31 33.96208 -119.09467 18743 ft 353 kts 298°
2026-04-26 16:31 33.97527 -119.11979 19342 ft 357 kts 298°
2026-04-26 16:31 33.98855 -119.14528 19954 ft 360 kts 298°
2026-04-26 16:32 34.00203 -119.17095 20565 ft 364 kts 300°
2026-04-26 16:32 34.01253 -119.18687 20930 ft 371 kts 309°
2026-04-26 16:32 34.03960 -119.21316 21724 ft 381 kts 320°
2026-04-26 16:32 34.06174 -119.23180 22308 ft 385 kts 320°
2026-04-26 16:33 34.08386 -119.25040 22872 ft 389 kts 320°
2026-04-26 16:33 34.10608 -119.26928 23385 ft 393 kts 320°
2026-04-26 16:33 34.12794 -119.28801 23853 ft 396 kts 320°
2026-04-26 16:33 34.15047 -119.30741 24328 ft 399 kts 320°
2026-04-26 16:34 34.17317 -119.32695 24804 ft 401 kts 320°
2026-04-26 16:34 34.19597 -119.34659 25270 ft 404 kts 319°
2026-04-26 16:34 34.21895 -119.36642 25719 ft 407 kts 319°
2026-04-26 16:34 34.24203 -119.38633 26170 ft 409 kts 319°
2026-04-26 16:35 34.26526 -119.40640 26609 ft 412 kts 319°
2026-04-26 16:35 34.28857 -119.42655 27037 ft 414 kts 319°
2026-04-26 16:35 34.31211 -119.44692 27460 ft 417 kts 319°
2026-04-26 16:35 34.33570 -119.46734 27877 ft 419 kts 319°
2026-04-26 16:36 34.35947 -119.48791 28278 ft 422 kts 319°
2026-04-26 16:36 34.38343 -119.50869 28670 ft 424 kts 319°
2026-04-26 16:36 34.40729 -119.52993 29070 ft 425 kts 315°
2026-04-26 16:36 34.42887 -119.55409 29445 ft 423 kts 310°
2026-04-26 16:37 34.44958 -119.57949 29852 ft 424 kts 309°
2026-04-26 16:37 34.47028 -119.60514 30202 ft 427 kts 309°
2026-04-26 16:37 34.49104 -119.63084 30582 ft 427 kts 309°
2026-04-26 16:37 34.50489 -119.64793 30854 ft 426 kts 309°
2026-04-26 16:38 34.53265 -119.68217 31398 ft 425 kts 309°
2026-04-26 16:38 34.55329 -119.70762 31775 ft 425 kts 308°
2026-04-26 16:38 34.57407 -119.73327 32149 ft 425 kts 308°
2026-04-26 16:38 34.59478 -119.75880 32533 ft 424 kts 308°
2026-04-26 16:39 34.61541 -119.78426 32885 ft 423 kts 308°
2026-04-26 16:39 34.63609 -119.80982 33243 ft 423 kts 308°
2026-04-26 16:39 34.65670 -119.83534 33580 ft 423 kts 308°
2026-04-26 16:39 34.67735 -119.86093 33911 ft 423 kts 308°
2026-04-26 16:40 34.69757 -119.88598 34047 ft 425 kts 308°
2026-04-26 16:40 34.71815 -119.91153 34055 ft 425 kts 308°
2026-04-26 16:40 34.75942 -119.96273 34027 ft 425 kts 308°
2026-04-26 16:41 34.79412 -120.00588 34009 ft 425 kts 308°
2026-04-26 16:41 34.84228 -120.06583 34019 ft 426 kts 308°
2026-04-26 16:42 34.87695 -120.10913 34019 ft 427 kts 308°
2026-04-26 16:42 34.91837 -120.16085 34017 ft 427 kts 308°
2026-04-26 16:43 34.95982 -120.21268 34018 ft 427 kts 308°
2026-04-26 16:43 35.00136 -120.26470 34023 ft 427 kts 308°
2026-04-26 16:44 35.04286 -120.31671 34020 ft 428 kts 308°
2026-04-26 16:44 35.08449 -120.36892 34025 ft 430 kts 309°
2026-04-26 16:45 35.12855 -120.41886 34020 ft 432 kts 311°
2026-04-26 16:45 35.17267 -120.46817 34021 ft 433 kts 311°
2026-04-26 16:46 35.21686 -120.51771 34018 ft 433 kts 311°
2026-04-26 16:46 35.26142 -120.56782 34028 ft 433 kts 311°
2026-04-26 16:47 35.30574 -120.61771 34017 ft 433 kts 311°
2026-04-26 16:47 35.35008 -120.66763 34019 ft 433 kts 311°
2026-04-26 16:48 35.39449 -120.71774 34020 ft 433 kts 311°
2026-04-26 16:48 35.43885 -120.76788 34028 ft 434 kts 311°
2026-04-26 16:49 35.48310 -120.81757 34038 ft 436 kts 314°
2026-04-26 16:49 35.53160 -120.86330 34038 ft 439 kts 317°
2026-04-26 16:50 35.58036 -120.90836 34031 ft 440 kts 317°
2026-04-26 16:50 35.62931 -120.95376 34038 ft 440 kts 317°
2026-04-26 16:51 35.67799 -120.99903 34033 ft 440 kts 317°
2026-04-26 16:51 35.72680 -121.04463 34034 ft 440 kts 317°
2026-04-26 16:52 35.76691 -121.08219 34015 ft 440 kts 317°
2026-04-26 16:52 35.82411 -121.13549 34022 ft 440 kts 317°
2026-04-26 16:53 35.87288 -121.18109 34020 ft 440 kts 317°
2026-04-26 16:53 35.92156 -121.22680 34026 ft 437 kts 317°
2026-04-26 16:54 35.96923 -121.27149 33740 ft 426 kts 317°
2026-04-26 16:54 35.99290 -121.29380 33464 ft 429 kts 317°
2026-04-26 16:54 36.01665 -121.31617 33193 ft 428 kts 316°
2026-04-26 16:55 36.04002 -121.33820 32935 ft 426 kts 316°
2026-04-26 16:55 36.06356 -121.36026 32673 ft 425 kts 318°
2026-04-26 16:55 36.08828 -121.38063 32416 ft 427 kts 321°
2026-04-26 16:55 36.11337 -121.40018 32159 ft 425 kts 322°
2026-04-26 16:56 36.16317 -121.43882 31645 ft 422 kts 321°
2026-04-26 16:56 36.18796 -121.45820 31377 ft 421 kts 321°
2026-04-26 16:56 36.21263 -121.47754 30926 ft 418 kts 321°
2026-04-26 16:57 36.23715 -121.49674 30381 ft 416 kts 322°
2026-04-26 16:57 36.26161 -121.51583 29743 ft 415 kts 322°
2026-04-26 16:57 36.31035 -121.55392 28433 ft 413 kts 322°
2026-04-26 16:58 36.33460 -121.57294 27852 ft 410 kts 322°
2026-04-26 16:58 36.35050 -121.58542 27478 ft 408 kts 322°
2026-04-26 16:58 36.40634 -121.62933 26140 ft 404 kts 323°
2026-04-26 16:59 36.43001 -121.64794 25557 ft 403 kts 323°
2026-04-26 16:59 36.47701 -121.68493 24465 ft 400 kts 324°
2026-04-26 17:00 36.52400 -121.72204 23295 ft 398 kts 324°
2026-04-26 17:00 36.57018 -121.75857 22077 ft 389 kts 325°
2026-04-26 17:00 36.59294 -121.77658 21514 ft 385 kts 325°
2026-04-26 17:01 36.61555 -121.79446 20959 ft 381 kts 326°
2026-04-26 17:01 36.63779 -121.81209 20422 ft 376 kts 326°
2026-04-26 17:01 36.65959 -121.82937 19907 ft 372 kts 326°
2026-04-26 17:01 36.68099 -121.84634 19424 ft 368 kts 326°
2026-04-26 17:02 36.70253 -121.86342 18946 ft 363 kts 327°
2026-04-26 17:02 36.72370 -121.88024 18484 ft 359 kts 327°
2026-04-26 17:02 36.74549 -121.89498 17997 ft 354 kts 340°
2026-04-26 17:02 36.76903 -121.90295 17531 ft 348 kts 348°
2026-04-26 17:03 36.79243 -121.90926 17083 ft 342 kts 348°
2026-04-26 17:03 36.81562 -121.91543 16650 ft 336 kts 348°
2026-04-26 17:03 36.83829 -121.92158 16234 ft 334 kts 348°
2026-04-26 17:03 36.86102 -121.92784 15833 ft 334 kts 348°
2026-04-26 17:04 36.88371 -121.93413 15447 ft 334 kts 348°
2026-04-26 17:04 36.90637 -121.94047 15053 ft 334 kts 348°
2026-04-26 17:04 36.92918 -121.94683 14631 ft 335 kts 347°
2026-04-26 17:04 36.95169 -121.95341 14203 ft 337 kts 345°
2026-04-26 17:05 36.97413 -121.96181 13767 ft 334 kts 342°
2026-04-26 17:05 36.99610 -121.97043 13307 ft 328 kts 342°
2026-04-26 17:05 37.01768 -121.97892 12879 ft 322 kts 342°
2026-04-26 17:05 37.03896 -121.98726 12481 ft 316 kts 342°
2026-04-26 17:06 37.05956 -121.99532 12067 ft 312 kts 342°
2026-04-26 17:06 37.08039 -122.00345 11650 ft 314 kts 342°
2026-04-26 17:06 37.10128 -122.01160 11251 ft 315 kts 342°
2026-04-26 17:06 37.12221 -122.01974 10839 ft 316 kts 342°
2026-04-26 17:07 37.14312 -122.02790 10477 ft 312 kts 342°
2026-04-26 17:07 37.16357 -122.03592 10235 ft 302 kts 342°
2026-04-26 17:07 37.18321 -122.04360 9979 ft 294 kts 342°
2026-04-26 17:07 37.20266 -122.05120 9558 ft 291 kts 342°
2026-04-26 17:08 37.22196 -122.05877 9118 ft 292 kts 342°
2026-04-26 17:08 37.24136 -122.06638 8732 ft 292 kts 342°
2026-04-26 17:08 37.26069 -122.07397 8426 ft 289 kts 342°
2026-04-26 17:08 37.27982 -122.08147 7986 ft 288 kts 342°
2026-04-26 17:09 37.29901 -122.08904 7481 ft 289 kts 342°
2026-04-26 17:09 37.31164 -122.09401 7207 ft 288 kts 342°
2026-04-26 17:09 37.33693 -122.10397 6806 ft 278 kts 341°
2026-04-26 17:09 37.35497 -122.11108 6604 ft 266 kts 341°
2026-04-26 17:10 37.37225 -122.11791 6177 ft 260 kts 341°
2026-04-26 17:10 37.38970 -122.12452 5725 ft 259 kts 343°
2026-04-26 17:10 37.40676 -122.13039 5534 ft 249 kts 343°
2026-04-26 17:10 37.42259 -122.13577 5380 ft 239 kts 343°
2026-04-26 17:11 37.43841 -122.14117 5098 ft 235 kts 342°
2026-04-26 17:11 37.45405 -122.14652 4835 ft 228 kts 342°
2026-04-26 17:11 37.46912 -122.15148 4630 ft 218 kts 343°
2026-04-26 17:11 37.48347 -122.15615 4385 ft 210 kts 342°
2026-04-26 17:12 37.51148 -122.16535 3680 ft 207 kts 342°
2026-04-26 17:12 37.52531 -122.17005 3307 ft 205 kts 339°
2026-04-26 17:13 37.54392 -122.19083 3019 ft 156 kts 296°
2026-04-26 17:13 37.54842 -122.20186 2856 ft 132 kts 294°
2026-04-26 17:13 37.55699 -122.22238 2496 ft 131 kts 294°
2026-04-26 17:14 37.56118 -122.23237 2310 ft 130 kts 294°
2026-04-26 17:14 37.56958 -122.25242 1954 ft 129 kts 294°
2026-04-26 17:14 37.57373 -122.26230 1783 ft 129 kts 295°
2026-04-26 17:15 37.58209 -122.28226 1434 ft 128 kts 295°
2026-04-26 17:15 37.58630 -122.29230 1257 ft 130 kts 295°
2026-04-26 17:15 37.59046 -122.30223 1084 ft 129 kts 295°
2026-04-26 17:16 37.59470 -122.31240 865 ft 126 kts 295°
2026-04-26 17:16 37.59860 -122.32202 689 ft 125 kts 295°
2026-04-26 17:16 37.60257 -122.33176 548 ft 125 kts 297°
2026-04-26 17:16 37.60671 -122.34113 372 ft 126 kts 298°
2026-04-26 17:17 37.61071 -122.35071 242 ft 126 kts 297°
2026-04-26 17:17 37.61488 -122.36041 81 ft 123 kts 298°
2026-04-26 17:17 37.61873 -122.36962 32 ft 113 kts 296°
2026-04-26 17:17 37.62200 -122.37740 27 ft 76 kts 298°
2026-04-26 17:18 37.62397 -122.38208 27 ft 45 kts 297°
2026-04-26 17:18 37.62480 -122.38453 27 ft 17 kts 275°
2026-04-26 17:18 37.62492 -122.38541 27 ft 15 kts 283°
2026-04-26 17:18 37.62501 -122.38682 27 ft 18 kts 267°
2026-04-26 17:19 37.62396 -122.38916 27 ft 10 kts 206°
2026-04-26 17:19 37.62328 -122.38904 27 ft 13 kts 120°
2026-04-26 17:19 37.62287 -122.38795 27 ft 15 kts 118°
2026-04-26 17:20 37.62234 -122.38671 27 ft 17 kts 118°
2026-04-26 17:20 37.62195 -122.38578 27 ft 18 kts 118°
2026-04-26 17:20 37.62114 -122.38374 27 ft 21 kts 115°
2026-04-26 17:20 37.62040 -122.38208 27 ft 23 kts 117°
2026-04-26 17:21 37.61975 -122.38049 27 ft 0 kts 117°
2026-04-26 17:21 37.61973 -122.38045 27 ft 2 kts 117°
2026-04-26 17:21 37.61956 -122.38014 27 ft 6 kts 133°
2026-04-26 17:21 37.61903 -122.37995 27 ft 11 kts 191°
2026-04-26 17:22 37.61826 -122.37971 27 ft 13 kts 144°
2026-04-26 17:22 37.61731 -122.37945 27 ft 15 kts 184°
2026-04-26 17:22 37.61689 -122.37955 27 ft 6 kts 197°
2026-04-26 17:22 37.61640 -122.37979 27 ft 9 kts 203°
2026-04-26 17:23 37.61579 -122.38022 27 ft 11 kts 211°
2026-04-26 17:23 37.61537 -122.38100 27 ft 8 kts 251°
2026-04-26 17:23 37.61522 -122.38159 27 ft 1 kts 252°
2026-04-26 17:23 37.61519 -122.38172 27 ft 3 kts 251°
2026-04-26 17:24 37.61516 -122.38181 27 ft 0 kts 251°
2026-04-26 17:24 37.61515 -122.38185 27 ft 0 kts 251°